Flag for Ireland Weather past 2 weeks in Dublin, Ireland

Now
52 °F

Scattered showers. Broken clouds.


Feels Like: 46 °F
Forecast: 36 / 53 °F
Wind: 17 mph from West

Location: Dublin Airport


UV Index: 3 (Moderate)

Visibility: N/A


Pressure: 30.12 "Hg

Humidity: 82%

Dew point: 46 °F

Location of DublinLocation

Historic Weather in Dublin

°F

Dublin temperature yesterday

Maximum temperature yesterday: 59 °F (at 2:30 PM)
Minimum temperature yesterday: 36 °F (at 2:30 AM)
Average temperature yesterday: 51 °F

Past Weeks' High & Low Weather Summary

 TemperatureHumidityPressure
High61 °F (Apr 5, 3:30 PM)100% (Apr 2, 8:00 PM)30.36 "Hg (Apr 2, 8:00 PM)
Low32 °F (Apr 15, 4:00 AM)45% (Apr 6, 4:30 PM)29.47 "Hg (Apr 2, 5:00 PM)
Average49 °F78%29.97 "Hg
* Reported Apr 2 5:00 PM — Apr 17 5:00 PM, Dublin, Weather by CustomWeather, © 2014

Note: Actual official high and low records may vary slightly from our data, if they occured in-between our weather recording intervals... More about our weather records

Advertising

Historic Weather Conditions — Data for Previous 24 hours

 ConditionsComfort  
Time TempWeatherWind HumidityBarometerVisibility
5:00 PM
Apr 17
52 °FBroken clouds.17 mph77%30.12 "HgN/A
4:30 PM52 °FBroken clouds.20 mph77%30.15 "HgN/A
4:00 PM50 °FPartly sunny.18 mph82%30.12 "HgN/A
3:30 PM50 °FPartly sunny.20 mph76%30.15 "HgN/A
3:00 PM50 °FPartly sunny.23 mph76%30.12 "HgN/A
2:30 PM52 °FPartly sunny.20 mph72%30.12 "HgN/A
2:00 PM52 °FPartly sunny.21 mph72%30.12 "HgN/A
1:30 PM52 °FPartly sunny.20 mph72%30.12 "HgN/A
1:00 PM54 °FPartly sunny.22 mph67%30.12 "HgN/A
12:30 PM52 °FPartly sunny.20 mph72%30.12 "HgN/A
12:00 PM52 °FPartly sunny.21 mph72%30.12 "HgN/A
11:30 AM50 °FPartly sunny.23 mph71%30.12 "HgN/A
11:00 AM50 °FPartly sunny.21 mph71%30.12 "HgN/A
10:30 AM52 °FBroken clouds.22 mph67%30.12 "HgN/A
10:00 AM50 °FBroken clouds.21 mph71%30.12 "HgN/A
9:30 AM48 °FBroken clouds.22 mph82%30.12 "HgN/A
9:00 AM48 °FPartly sunny.16 mph87%30.12 "HgN/A
8:30 AM48 °FBroken clouds.18 mph87%30.12 "HgN/A
8:00 AM48 °FBroken clouds.18 mph87%30.12 "HgN/A
7:30 AM48 °FBroken clouds.14 mph87%30.12 "HgN/A
7:00 AM48 °FPartly cloudy.16 mph87%30.09 "HgN/A
6:30 AM48 °FPassing clouds.15 mph87%30.09 "HgN/A
6:00 AM50 °FPassing clouds.17 mph82%30.09 "HgN/A
5:30 AM50 °FPartly cloudy.16 mph88%30.07 "HgN/A
5:00 AM50 °FPartly cloudy.15 mph88%30.09 "HgN/A
4:30 AM50 °FPartly cloudy.14 mph88%30.09 "HgN/A
4:00 AM50 °FPassing clouds.15 mph88%30.09 "HgN/A
3:30 AM50 °FPartly cloudy.15 mph88%30.09 "HgN/A
3:00 AM50 °FPartly cloudy.13 mph88%30.09 "HgN/A
2:30 AM50 °FPartly cloudy.14 mph88%30.09 "HgN/A
2:00 AM50 °FPassing clouds.14 mph82%30.12 "HgN/A
1:30 AM50 °FPassing clouds.10 mph82%30.12 "HgN/A
1:00 AM50 °FPassing clouds.13 mph82%30.12 "HgN/A
12:30 AM50 °FPassing clouds.15 mph82%30.12 "HgN/A
12:00 AM50 °FPassing clouds.16 mph76%30.12 "HgN/A
11:30 PM
Apr 16
52 °FPassing clouds.15 mph72%30.12 "HgN/A
11:00 PM52 °FPassing clouds.13 mph67%30.12 "HgN/A
10:30 PM52 °FPassing clouds.12 mph67%30.12 "HgN/A
10:00 PM52 °FPassing clouds.12 mph67%30.12 "HgN/A
9:30 PM52 °FPassing clouds.12 mph67%30.12 "HgN/A
9:00 PM52 °FPassing clouds.12 mph62%30.12 "HgN/A
8:30 PM54 °FPassing clouds.13 mph58%30.12 "HgN/A
8:00 PM55 °FScattered clouds.14 mph55%30.12 "HgN/A
7:30 PM55 °FScattered clouds.17 mph55%30.12 "HgN/A
7:00 PM57 °FScattered clouds.16 mph55%30.12 "HgN/A
6:30 PM57 °FPartly sunny.22 mph55%30.12 "HgN/A
6:00 PM59 °FPartly sunny.14 mph51%30.12 "HgN/A
Weather by CustomWeather, © 2014

See weather overview